Total_Precipitation_Accumulation
0.04 0.07 0.12 0.12 0.09 0.08 0.07 0.07 0.08 0.11 0.18 0.27 0.38 0.44 0.52 0.55 0.55 0.56 0.50 0.50 0.62 0.75 0.89 0.88 0.80 0.74 0.79 1.01 1.20 1.38 1.55 1.58 1.62 1.75 1.88 2.02 2.18 2.22 2.21 2.21 2.15 2.27 2.25 2.15
0.05 0.07 0.09 0.08 0.07 0.07 0.06 0.06 0.08 0.12 0.20 0.30 0.40 0.45 0.44 0.48 0.47 0.50 0.59 0.60 0.65 0.84 1.02 1.12 1.14 1.13 1.17 1.32 1.57 1.83 2.07 2.17 2.27 2.36 2.45 2.52 2.56 2.57 2.61 2.58 2.50 2.40 2.29 2.31
0.11 0.10 0.12 0.10 0.09 0.09 0.09 0.10 0.12 0.18 0.26 0.40 0.53 0.50 0.56 0.60 0.57 0.64 0.71 0.78 0.81 0.96 1.08 1.23 1.28 1.36 1.50 1.66 1.88 2.08 2.23 2.35 2.47 2.56 2.70 2.80 2.82 2.80 2.68 2.61 2.54 2.41 2.39 2.39
0.19 0.21 0.22 0.14 0.16 0.19 0.22 0.24 0.27 0.30 0.36 0.45 0.56 0.58 0.62 0.65 0.64 0.66 0.78 0.94 0.94 1.02 1.13 1.20 1.35 1.51 1.67 1.76 1.90 2.20 2.38 2.45 2.51 2.56 2.65 2.78 2.91 2.82 2.66 2.59 2.54 2.49 2.43 2.29
0.32 0.29 0.30 0.29 0.27 0.29 0.38 0.46 0.43 0.58 0.65 0.61 0.64 0.69 0.70 0.70 0.85 0.86 0.86 0.94 0.99 1.10 1.19 1.30 1.35 1.41 1.43 1.52 1.68 1.90 2.12 2.27 2.26 2.38 2.58 2.67 2.70 2.70 2.71 2.65 2.47 2.33 2.21 2.14
0.46 0.48 0.46 0.44 0.46 0.38 0.43 0.75 0.74 0.83 0.92 0.87 0.89 1.06 0.98 0.75 0.75 0.82 0.88 0.95 1.05 1.19 1.24 1.24 1.26 1.27 1.34 1.47 1.69 1.90 2.11 2.29 2.41 2.50 2.63 2.66 2.68 2.77 2.77 2.70 2.66 2.62 2.46 2.33
0.52 0.57 0.57 0.50 0.46 0.47 0.80 1.06 1.04 1.10 1.13 1.07 1.11 1.14 1.05 0.89 0.83 0.81 0.87 0.94 1.04 1.19 1.32 1.31 1.32 1.45 1.56 1.69 1.85 2.03 2.14 2.21 2.31 2.44 2.58 2.75 2.90 2.83 2.79 2.73 2.65 2.47 2.31 2.19
0.74 0.93 1.04 0.77 0.69 0.90 1.07 0.84 0.89 1.07 1.26 1.29 1.23 1.15 1.06 0.97 0.89 0.80 0.76 0.84 1.02 1.15 1.28 1.42 1.53 1.67 1.79 1.82 1.87 2.02 2.20 2.25 2.28 2.41 2.42 2.49 2.59 2.56 2.54 2.54 2.51 2.46 2.44 2.38
1.06 1.23 1.12 0.94 0.96 0.91 0.97 1.10 1.16 1.25 1.44 1.45 1.31 1.18 1.18 1.11 0.98 0.87 0.85 0.91 1.02 1.14 1.27 1.36 1.53 1.70 1.84 1.93 1.99 2.07 2.16 2.27 2.37 2.40 2.42 2.51 2.63 2.64 2.56 2.48 2.42 2.33 2.26 2.09
1.27 1.40 1.24 1.08 1.05 1.01 1.06 1.24 1.30 1.26 1.27 1.26 1.20 1.14 1.26 1.29 1.14 1.10 1.11 1.11 1.13 1.20 1.27 1.36 1.45 1.61 1.78 1.90 1.94 2.05 2.11 2.16 2.29 2.39 2.49 2.61 2.62 2.52 2.38 2.22 2.14 2.07 1.98 1.88
1.52 1.72 1.64 1.46 1.32 1.22 1.22 1.18 1.26 1.19 1.21 1.18 1.16 1.13 1.21 1.33 1.38 1.32 1.21 1.15 1.18 1.24 1.32 1.37 1.44 1.51 1.72 1.91 1.97 1.99 2.10 2.14 2.12 2.14 2.21 2.31 2.36 2.32 2.20 2.07 1.96 1.89 1.78 1.75
1.86 1.88 1.98 1.86 1.53 1.35 1.39 1.34 1.29 1.25 1.32 1.36 1.31 1.23 1.23 1.36 1.41 1.38 1.29 1.23 1.23 1.25 1.29 1.35 1.46 1.57 1.65 1.89 2.11 2.16 2.13 2.00 1.90 1.80 1.79 1.83 1.84 1.89 2.02 1.91 1.88 1.72 1.60 1.53
1.57 1.83 1.89 1.73 1.54 1.58 1.56 1.53 1.50 1.48 1.47 1.47 1.52 1.46 1.34 1.32 1.35 1.33 1.31 1.29 1.30 1.35 1.40 1.47 1.59 1.64 1.62 1.68 1.90 2.09 2.02 1.86 1.74 1.70 1.70 1.66 1.62 1.62 1.72 1.75 1.69 1.60 1.57 1.45
1.40 1.61 1.84 1.71 1.66 1.65 1.60 1.64 1.65 1.70 1.68 1.59 1.60 1.59 1.47 1.39 1.34 1.33 1.34 1.24 1.16 1.19 1.29 1.36 1.45 1.56 1.61 1.62 1.72 1.82 1.88 1.91 1.73 1.61 1.68 1.69 1.65 1.62 1.64 1.68 1.67 1.59 1.56 1.49
1.37 1.40 1.52 1.50 1.50 1.55 1.50 1.53 1.66 1.76 1.81 1.77 1.72 1.63 1.51 1.49 1.44 1.35 1.24 1.15 1.14 1.18 1.19 1.23 1.30 1.33 1.39 1.52 1.63 1.68 1.71 1.74 1.71 1.68 1.66 1.67 1.68 1.59 1.54 1.53 1.55 1.47 1.42 1.48
1.37 1.25 1.27 1.47 1.54 1.55 1.61 1.65 1.65 1.62 1.57 1.59 1.58 1.57 1.55 1.50 1.41 1.31 1.23 1.21 1.26 1.31 1.27 1.24 1.26 1.25 1.24 1.31 1.52 1.63 1.63 1.78 1.70 1.68 1.67 1.63 1.66 1.65 1.60 1.58 1.55 1.47 1.40 1.42
1.41 1.33 1.35 1.46 1.48 1.55 1.65 1.58 1.51 1.45 1.43 1.42 1.44 1.43 1.42 1.47 1.44 1.40 1.38 1.32 1.29 1.35 1.36 1.36 1.34 1.29 1.29 1.35 1.45 1.56 1.50 1.55 1.62 1.48 1.51 1.58 1.55 1.58 1.60 1.59 1.54 1.46 1.36 1.37
1.34 1.25 1.34 1.45 1.45 1.51 1.45 1.38 1.32 1.23 1.24 1.34 1.45 1.47 1.42 1.41 1.40 1.44 1.44 1.34 1.25 1.28 1.31 1.34 1.31 1.27 1.28 1.35 1.41 1.52 1.47 1.36 1.37 1.40 1.53 1.58 1.61 1.63 1.66 1.63 1.58 1.55 1.53 1.53
1.29 1.26 1.26 1.26 1.29 1.37 1.28 1.27 1.25 1.25 1.21 1.26 1.37 1.42 1.43 1.43 1.40 1.33 1.34 1.44 1.47 1.43 1.30 1.19 1.21 1.15 1.20 1.34 1.40 1.46 1.52 1.47 1.44 1.43 1.55 1.68 1.69 1.72 1.74 1.71 1.68 1.64 1.60 1.54
1.37 1.40 1.35 1.26 1.25 1.35 1.34 1.25 1.17 1.19 1.16 1.19 1.33 1.42 1.45 1.38 1.33 1.32 1.41 1.48 1.50 1.33 1.10 1.04 0.99 1.02 1.03 1.12 1.22 1.24 1.36 1.45 1.47 1.45 1.50 1.54 1.56 1.57 1.57 1.54 1.54 1.54 1.55 1.60
1.62 1.50 1.41 1.36 1.24 1.20 1.27 1.28 1.27 1.23 1.16 1.19 1.31 1.34 1.38 1.29 1.19 1.23 1.37 1.41 1.32 1.12 0.96 1.02 1.03 1.02 0.93 0.97 1.03 1.05 1.19 1.36 1.44 1.41 1.39 1.42 1.41 1.34 1.33 1.38 1.47 1.57 1.57 1.59
1.61 1.43 1.27 1.17 1.20 1.28 1.24 1.24 1.25 1.29 1.34 1.41 1.39 1.34 1.34 1.30 1.22 1.24 1.23 1.26 1.14 1.08 0.92 0.91 0.99 1.03 0.98 0.89 0.85 1.02 1.16 1.28 1.34 1.34 1.34 1.38 1.42 1.37 1.30 1.34 1.43 1.48 1.51 1.50
1.46 1.32 1.27 1.24 1.26 1.34 1.30 1.26 1.28 1.30 1.36 1.48 1.54 1.52 1.46 1.38 1.31 1.30 1.31 1.16 1.02 1.00 0.95 0.99 1.02 0.98 0.93 0.86 0.87 0.96 1.03 1.11 1.13 1.15 1.17 1.25 1.37 1.43 1.39 1.33 1.26 1.28 1.37 1.41
1.50 1.39 1.35 1.27 1.26 1.36 1.46 1.45 1.38 1.34 1.29 1.35 1.40 1.43 1.42 1.40 1.38 1.28 1.34 1.35 1.19 1.00 0.96 1.05 0.98 0.88 0.89 0.90 0.97 1.02 1.04 1.06 1.08 1.13 1.17 1.24 1.37 1.45 1.40 1.30 1.18 1.12 1.20 1.35
1.50 1.45 1.43 1.42 1.39 1.38 1.39 1.39 1.36 1.30 1.22 1.25 1.20 1.22 1.29 1.37 1.47 1.47 1.44 1.34 1.27 1.16 1.03 0.99 0.95 0.89 0.83 0.89 0.98 1.03 1.02 1.01 1.04 1.10 1.13 1.17 1.21 1.24 1.28 1.25 1.15 1.07 1.06 1.16
1.55 1.44 1.38 1.41 1.43 1.37 1.30 1.34 1.44 1.45 1.41 1.40 1.30 1.20 1.21 1.32 1.43 1.47 1.45 1.33 1.15 1.05 0.98 0.95 0.90 0.88 0.82 0.87 0.94 0.99 1.02 1.03 1.02 0.98 0.95 0.98 0.97 0.91 0.89 0.92 0.97 1.01 1.03 1.00
1.48 1.39 1.31 1.26 1.20 1.14 1.21 1.28 1.37 1.47 1.50 1.45 1.35 1.20 1.19 1.29 1.39 1.38 1.27 1.21 1.11 1.00 0.89 0.78 0.73 0.74 0.78 0.79 0.80 0.82 0.85 0.86 0.88 0.97 1.07 1.13 0.96 0.79 0.73 0.76 0.80 0.86 0.90 0.88